Regional Weather Roundup
Issued by NWS Newport/Morehead, NC

Current Version | Previous Version | Text Only | Print | Product List | Glossary On
Versions: 1 2 3 4 5 6 7 8 9 10 11 12 13 14 15 16 17 18 19 20 21 22 23 24 25 26 27 28 29 30 31 32 33 34 35 36 37 38 39 40 41 42 43 44 45 46 47 48 49 50
299
ASUS42 KMHX 301625
RWRMHX
WEATHER ROUNDUP FOR EASTERN NORTH CAROLINA
NATIONAL WEATHER SERVICE NEWPORT/MOREHEAD CITY NC
1200 PM EDT MON MAY 30 2016

NOTE: "FAIR" INDICATES FEW OR NO CLOUDS BELOW 12,000 FEET
WITH NO SIGNIFICANT WEATHER AND/OR OBSTRUCTIONS TO VISIBILITY

NCZ015>017-031-032-045>047-102-103-301700-
NORTH COAST

CITY           SKY/WX    TMP DP  RH WIND       PRES   REMARKS
EDENTON        CLOUDY   N/A N/A N/A SE3       30.02S
ELIZABETH CITY RAIN      74  72  93 SE8       30.02F FOG
KITTY HAWK     LGT RAIN  72  71  96 CALM      30.01F
MANTEO         NOT AVBL

$$

NCZ045>047-081-094-103-104-301700-
CENTRAL COAST

CITY           SKY/WX    TMP DP  RH WIND       PRES   REMARKS
FRISCO         LGT RAIN  72  70  93 S7        30.03S

$$

NCZ095-097-098-100-101-301700-
SOUTHERN COAST

CITY           SKY/WX    TMP DP  RH WIND       PRES   REMARKS
BEAUFORT       CLOUDY    77  71  82 E8        29.99S
CEDAR ISLAND   NOT AVBL
JACKSONVILLE   CLOUDY    82  67  60 S8        29.97R
PINEY ISLAND   PTSUNNY  N/A N/A N/A E10       30.00F
WILMINGTON     PTSUNNY   81  69  67 SE10G18   29.96S


$$

NCZ011>013-027>030-043-044-078>080-089-090>093-098-301700-
COASTAL PLAIN

CITY           SKY/WX    TMP DP  RH WIND       PRES   REMARKS
AHOSKIE        CLOUDY    78  71  80 E5        30.00F
CLINTON        MOSUNNY   82  73  75 E3        29.96F
ELIZABETHTOWN  PTSUNNY   82  70  67 SE6       29.94F
GOLDSBORO      PTSUNNY   83  73  70 E10       29.96F
GREENVILLE     CLOUDY    81  72  74 SE6       30.01S
HAVELOCK       PTSUNNY   81  72  74 SE8       29.99F
KENANSVILLE    CLOUDY    80  71  74 CALM      29.97F
KINSTON        CLOUDY    79  72  78 E6        29.99S
NEW BERN       PTSUNNY   81  71  71 E7        30.00F
RICHLANDS      PTSUNNY   81  73  76 NE10      29.97F
ROCKY MOUNT    PTSUNNY   82  71  69 NE9       29.98F
WASHINGTON     MOSUNNY   79  71  77 SE5       30.00S
WHITEVILLE     CLOUDY    79  69  71 E8        29.94S

$$

AMZ130-135-150-152-154-156-158-170-250-252-270-ANZ085-086-088-633-658-670-301700-
MARINE OBSERVATIONS

STATION/POSITION TIME  TEMP    WIND        PRES    WAVE   SWELL
                       AIR SEA DIR/SP/G            HT/PER HT/PER
                 (UTC) (F)     (DEG/KT/KT) (MB)    (FT/S) (FT/S)
CHESAPEAKE LIGHT 1600   69     170/ 12/ 13 1017.3
64 E VA BEACH    1550   66 64  200/  6/ 10 1017.1    5/ 8   5/ 8
DUCK             1600   64 58  140/  8/  8 1015.9
2 E DUCK         1511      62                N/A     3/ 7
OREGON INLET     1600   72 77  170/  5/  6 1016.4
13E OREGON INLT  1600      65                N/A     5/ 6   5/ 6
HATTERAS CG      1600   72 75  140/  5/  6 1016.2
DIAMOND BUOY     1550   75 80  230/ 16/ 23 1016.3    7/ 7   3/ 8
CAPE LOOKOUT     1600   72     100/  1/  3 1015.6
BEAUFORT LAB     1600   75 76  120/ 10/ 11 1014.8
30 SE NEW RVR IN 1525      76                N/A     6/ 7
27 SE WRIGHTSVLE 1608   78 76  170/  4/  8 1014.1
5 SE WRIGHTSVLE  NOT AVBL
225 S CAPE HAT   1550   73 75  130/ 14/ 16 1016.3    5/ 8   3/ 8
41 SE CHARLESTON 1550   74 77  240/ 12/ 16 1013.3    4/ 8   3/ 8

$$




USA.gov is the U.S. government's official web portal to all federal, state and local government web resources and services.